Погода в Кургане

Россия / Пермский край     60°09′58″N   56°08′17″E
темп.,
°C
ветер,
м/с
пор.,
м/с
влажн.,
%
обл.,
%
осадки,
мм/ч
давл.,
гПа
погр.,
м
22 апреля, чт
чт2223:00+4юв31182100 0.0 1027212
02:00+3юв31181100 0.0 1027221
05:00+3ююв41478100 0.0 1026324
08:00+5ююв51470100 0.0 1025716
11:00+7ю61464100 0.0 10251166
14:00+5ю51195100 0.8 1026978
17:00+4ю51097100 1.4 1026938
20:00+4ю41097100 0.0 1026726
23 апреля, пт
пт2323:00+4ю41098100 0.0 1026564
02:00+4ю4998100 0.1 1026471
05:00+4ю4995100 0.1 1026570
08:00+4ю389099 0.0 1026416
11:00+5ю379082 0.0 1027509
14:00+7ю3786100 0.0 1027639
17:00+8ю4577100 0.1 1027932
20:00+6ююв379299 0.1 1028313
24 апреля, сб
сб2423:00+5ююв2793100 0.1 1028234
02:00+4ююв269596 0.0 1028211
05:00+4юв2497100 0.0 1027159
08:00+4вюв2494100 0.0 1026185
11:00+9вюв366775 0.0 1025908
14:00+9вюв3561100 0.1 10231448
17:00+9в3670100 0.1 1021971
20:00+7вюв3879100 0.0 1020509
25 апреля, вс
вс2523:00+6вюв4986100 0.1 1019934
02:00+5вюв4990100 0.1 10171063
05:00+5вюв4996100 0.5 1015909
08:00+4юв4997100 0.9 1014847
11:00+5вюв4995100 1.3 1013669
14:00+8вюв61065100 0.2 10111452
17:00+7вюв61177100 0.6 10091185
20:00+5юв51191100 0.2 1008915
26 апреля, пн
пн2623:00+5ююв61189100 1.3 1007963
02:00+4ююз6128785 0.1 10071073
05:00+3ю5128390 0.2 1008825
08:00+4ююз512805 0.0 1009805
11:00+7ююз6115773 0.0 10091700
14:00+9юз71149100 0.6 10092370
17:00+9юз61150100 1.4 10092167
20:00+7юз5105960 0.4 10101018